AL7LI Weather Reports


Display with metric or nautical units.
time (UTC)temp
F
wind
direction
speed
MPH
gust
MPH
rain 1hr
in
rain 24hr
in
rain mn
in
humidity
%
barometer
mb
20260506170016 75 171 2.0 7.0 0.00 0.00 0.00 32 1014.4
20260506163016 73 184 2.0 7.0 0.00 0.00 0.00 34 1014.4
20260506160016 71 157 2.0 5.0 0.00 0.00 0.00 36 1014.4
20260506153016 69 170 1.0 5.0 0.00 0.00 0.00 38 1014.3
20260506150016 67 186 1.0 5.0 0.00 0.00 0.00 39 1014.0
20260506143016 65 162 2.0 5.0 0.00 0.00 0.00 42 1013.9
20260506140017 62 141 1.0 4.0 0.00 0.00 0.00 45 1013.6
20260506133016 60 133 1.0 3.0 0.00 0.00 0.00 48 1013.1
20260506130016 58 100 0.0 2.0 0.00 0.00 0.00 52 1012.7
20260506123016 58 203 0.0 1.0 0.00 0.00 0.00 52 1012.5
20260506120017 59 0.0 1.0 0.00 0.00 0.00 50 1012.3
20260506113016 60 210 0.0 3.0 0.00 0.00 0.00 49 1012.0
20260506110015 60 215 0.0 3.0 0.00 0.00 0.00 48 1011.8
20260506103015 62 202 1.0 5.0 0.00 0.00 0.00 45 1011.5
20260506100015 63 204 1.0 5.0 0.00 0.00 0.00 43 1011.3
20260506093016 65 183 1.0 8.0 0.00 0.00 0.00 39 1011.2
20260506090015 67 138 3.0 8.0 0.00 0.00 0.00 38 1011.1
20260506083016 67 129 2.0 6.0 0.00 0.00 0.00 39 1011.1
20260506073015 67 165 1.0 4.0 0.00 0.00 0.00 40 1010.8
20260506043015 72 146 3.0 7.0 0.00 0.00 0.00 29 1008.6
20260506040016 73 148 3.0 7.0 0.00 0.00 0.00 28 1008.2
20260506033015 74 155 2.0 7.0 0.00 0.00 0.00 27 1007.8
20260506030015 76 151 2.0 7.0 0.00 0.00 0.00 26 1007.3
20260506023015 78 156 3.0 9.0 0.00 0.00 0.00 24 1007.0
20260506020015 80 164 4.0 10.0 0.00 0.00 0.00 23 1006.7
20260506013116 81 190 3.0 10.0 0.00 0.00 0.00 22 1006.5
20260506010035 81 202 3.0 11.0 0.00 0.00 0.00 21 1006.4
20260506003015 81 227 3.0 11.0 0.00 0.00 0.00 21 1006.4
20260506000017 81 243 3.0 10.0 0.00 0.00 0.00 21 1006.4
20260505233037 80 228 2.0 10.0 0.00 0.00 0.00 21 1006.4
20260505230037 79 234 3.0 11.0 0.00 0.00 0.00 22 1006.6
20260505223057 80 178 3.0 11.0 0.00 0.00 0.00 23 1007.0